• Em Portugal
  • Lista de países
  • Para 7 dias
  • Temperatura da água
  • Mapas de satélite
  • Mapa do tempo
  • Widgets de tempo
  • user-avatar
    Iniciar Sessão

    Previsão horária em Studzieniec

    Hoje, 24 Setembro, Segunda-feira

    Tempo Temperatura Precipitação Vento Pressão Humidade
    00:00 +15°C° 0.3 mm 9 m/s 736 mmHg 65%
    01:00 +16°C° 0.3 mm 9 m/s 735 mmHg 70%
    02:00 +14°C° 0.3 mm 10 m/s 736 mmHg 73%
    03:00 +13°C° 0.3 mm 10 m/s 736 mmHg 76%
    04:00 +13°C° 0.3 mm 11 m/s 737 mmHg 79%
    05:00 +11°C° 0.1 mm 10 m/s 739 mmHg 78%
    06:00 +10°C° 0.1 mm 9 m/s 741 mmHg 77%
    07:00 +7°C° 0.1 mm 8 m/s 743 mmHg 76%
    08:00 +9°C° 0.2 mm 8 m/s 744 mmHg 74%
    09:00 +10°C° 0.2 mm 8 m/s 745 mmHg 72%
    10:00 +10°C° 0.2 mm 8 m/s 746 mmHg 70%
    11:00 +10°C° 0.2 mm 9 m/s 746 mmHg 68%
    12:00 +10°C° 0.2 mm 9 m/s 746 mmHg 66%
    13:00 +9°C° 0.2 mm 10 m/s 747 mmHg 63%
    14:00 +10°C° 0 mm 9 m/s 747 mmHg 61%
    15:00 +10°C° 0 mm 9 m/s 747 mmHg 59%
    16:00 +10°C° 0 mm 8 m/s 748 mmHg 57%
    17:00 +9°C° 0.1 mm 7 m/s 748 mmHg 61%
    18:00 +8°C° 0.1 mm 7 m/s 749 mmHg 65%
    19:00 +8°C° 0.1 mm 6 m/s 749 mmHg 68%
    20:00 +7°C° 0.1 mm 6 m/s 749 mmHg 71%
    21:00 +7°C° 0.1 mm 6 m/s 750 mmHg 74%
    22:00 +7°C° 0.1 mm 6 m/s 750 mmHg 77%
    23:00 +5°C° 0.1 mm 6 m/s 751 mmHg 78%

    Amanhã, 25 Setembro, Terça-feira

    Tempo Temperatura Precipitação Vento Pressão Humidade
    00:00 +6°C° 0.1 mm 5 m/s 751 mmHg 79%
    01:00 +6°C° 0.1 mm 5 m/s 752 mmHg 81%
    02:00 +5°C° 0 mm 5 m/s 752 mmHg 81%
    03:00 +5°C° 0 mm 5 m/s 753 mmHg 81%
    04:00 +5°C° 0 mm 5 m/s 753 mmHg 81%
    05:00 +5°C° 0 mm 5 m/s 754 mmHg 80%
    06:00 +5°C° 0 mm 5 m/s 755 mmHg 78%
    07:00 +5°C° 0 mm 6 m/s 755 mmHg 77%
    08:00 +7°C° 0 mm 6 m/s 756 mmHg 68%
    09:00 +9°C° 0 mm 7 m/s 756 mmHg 59%
    10:00 +10°C° 0 mm 7 m/s 757 mmHg 50%
    11:00 +11°C° 0.1 mm 7 m/s 757 mmHg 48%
    12:00 +11°C° 0.1 mm 7 m/s 757 mmHg 45%
    13:00 +12°C° 0.1 mm 7 m/s 757 mmHg 43%
    14:00 +11°C° 0.1 mm 7 m/s 757 mmHg 45%
    15:00 +11°C° 0.1 mm 6 m/s 758 mmHg 47%
    16:00 +10°C° 0.1 mm 5 m/s 758 mmHg 49%
    17:00 +9°C° 0 mm 5 m/s 758 mmHg 51%
    18:00 +8°C° 0 mm 4 m/s 759 mmHg 54%
    19:00 +8°C° 0 mm 3 m/s 760 mmHg 56%
    20:00 +7°C° 0 mm 3 m/s 760 mmHg 59%
    21:00 +5°C° 0 mm 3 m/s 761 mmHg 62%
    22:00 +5°C° 0 mm 3 m/s 761 mmHg 64%
    23:00 +5°C° 0 mm 2 m/s 761 mmHg 67%

    Depois de amanhã, 26 Setembro, Quarta-feira

    Tempo Temperatura Precipitação Vento Pressão Humidade
    00:00 +5°C° 0 mm 2 m/s 762 mmHg 70%
    01:00 +4°C° 0 mm 2 m/s 762 mmHg 73%
    02:00 +4°C° 0 mm 2 m/s 762 mmHg 75%
    03:00 +4°C° 0 mm 2 m/s 762 mmHg 76%
    04:00 +3°C° 0 mm 2 m/s 762 mmHg 77%
    05:00 +4°C° 0 mm 2 m/s 762 mmHg 75%
    06:00 +6°C° 0 mm 1 m/s 763 mmHg 72%
    07:00 +6°C° 0 mm 1 m/s 763 mmHg 70%
    08:00 +7°C° 0 mm 2 m/s 763 mmHg 62%
    09:00 +9°C° 0 mm 2 m/s 762 mmHg 54%
    10:00 +11°C° 0 mm 3 m/s 762 mmHg 46%
    11:00 +12°C° 0 mm 3 m/s 762 mmHg 43%
    12:00 +12°C° 0 mm 3 m/s 761 mmHg 40%
    13:00 +13°C° 0 mm 3 m/s 761 mmHg 38%
    14:00 +13°C° 0 mm 3 m/s 760 mmHg 40%
    15:00 +13°C° 0 mm 3 m/s 759 mmHg 42%
    16:00 +13°C° 0 mm 3 m/s 759 mmHg 44%
    17:00 +12°C° 0 mm 3 m/s 758 mmHg 46%
    18:00 +11°C° 0 mm 3 m/s 758 mmHg 48%
    19:00 +10°C° 0 mm 3 m/s 758 mmHg 50%
    20:00 +10°C° 0 mm 3 m/s 758 mmHg 50%
    21:00 +10°C° 0 mm 4 m/s 758 mmHg 50%
    22:00 +10°C° 0 mm 4 m/s 757 mmHg 50%
    23:00 +10°C° 0 mm 5 m/s 757 mmHg 50%

    27 Setembro, Quinta-feira

    Tempo Temperatura Precipitação Vento Pressão Humidade
    00:00 +10°C° 0 mm 5 m/s 757 mmHg 51%
    01:00 +10°C° 0 mm 5 m/s 756 mmHg 51%
    02:00 +10°C° 0 mm 5 m/s 756 mmHg 50%
    03:00 +10°C° 0 mm 5 m/s 756 mmHg 48%
    04:00 +10°C° 0 mm 6 m/s 755 mmHg 46%
    05:00 +11°C° 0 mm 6 m/s 755 mmHg 46%
    06:00 +11°C° 0 mm 6 m/s 755 mmHg 46%
    07:00 +11°C° 0 mm 6 m/s 755 mmHg 47%
    08:00 +13°C° 0 mm 6 m/s 755 mmHg 47%
    09:00 +14°C° 0 mm 6 m/s 755 mmHg 48%
    10:00 +15°C° 0 mm 6 m/s 755 mmHg 48%
    11:00 +17°C° 0 mm 6 m/s 754 mmHg 49%
    12:00 +19°C° 0 mm 6 m/s 754 mmHg 49%
    13:00 +20°C° 0 mm 6 m/s 754 mmHg 50%
    14:00 +20°C° 0 mm 6 m/s 753 mmHg 53%
    15:00 +20°C° 0 mm 5 m/s 753 mmHg 55%
    16:00 +20°C° 0 mm 4 m/s 753 mmHg 58%
    17:00 +18°C° 0 mm 4 m/s 752 mmHg 62%
    18:00 +17°C° 0 mm 4 m/s 752 mmHg 65%
    19:00 +14°C° 0 mm 3 m/s 752 mmHg 69%
    20:00 +14°C° 0 mm 3 m/s 752 mmHg 69%
    21:00 +14°C° 0 mm 3 m/s 752 mmHg 70%
    22:00 +13°C° 0 mm 3 m/s 752 mmHg 70%
    23:00 +13°C° 0 mm 4 m/s 752 mmHg 69%

    28 Setembro, Sexta-feira

    Tempo Temperatura Precipitação Vento Pressão Humidade
    00:00 +13°C° 0 mm 4 m/s 751 mmHg 68%
    01:00 +12°C° 0 mm 4 m/s 751 mmHg 68%
    02:00 +12°C° 0 mm 4 m/s 751 mmHg 68%
    03:00 +12°C° 0 mm 4 m/s 750 mmHg 68%
    04:00 +12°C° 0 mm 4 m/s 750 mmHg 69%
    05:00 +12°C° 0 mm 4 m/s 750 mmHg 67%
    06:00 +13°C° 0 mm 4 m/s 750 mmHg 66%
    07:00 +13°C° 0 mm 4 m/s 750 mmHg 65%
    08:00 +14°C° 0 mm 4 m/s 750 mmHg 64%
    09:00 +15°C° 0 mm 4 m/s 750 mmHg 62%
    10:00 +17°C° 0 mm 4 m/s 750 mmHg 60%
    11:00 +18°C° 0 mm 4 m/s 750 mmHg 59%
    12:00 +19°C° 0 mm 4 m/s 750 mmHg 59%
    13:00 +20°C° 0 mm 3 m/s 750 mmHg 59%
    14:00 +19°C° 0 mm 3 m/s 750 mmHg 63%
    15:00 +19°C° 0 mm 3 m/s 750 mmHg 67%
    16:00 +18°C° 0 mm 3 m/s 750 mmHg 71%
    17:00 +17°C° 0 mm 2 m/s 750 mmHg 76%
    18:00 +16°C° 0 mm 2 m/s 750 mmHg 81%
    19:00 +15°C° 0 mm 2 m/s 750 mmHg 86%
    20:00 +14°C° 0 mm 1 m/s 750 mmHg 84%
    21:00 +14°C° 0 mm 1 m/s 750 mmHg 83%
    22:00 +14°C° 0 mm 1 m/s 751 mmHg 82%
    23:00 +14°C° 0.2 mm 1 m/s 751 mmHg 81%

    29 Setembro, Sábado

    Tempo Temperatura Precipitação Vento Pressão Humidade
    00:00 +13°C° 0.2 mm 2 m/s 751 mmHg 81%
    01:00 +13°C° 0.2 mm 2 m/s 751 mmHg 80%
    02:00 +12°C° 0.4 mm 2 m/s 751 mmHg 80%
    03:00 +12°C° 0.4 mm 2 m/s 751 mmHg 80%
    04:00 +10°C° 0.4 mm 2 m/s 751 mmHg 81%
    05:00 +10°C° 0 mm 2 m/s 752 mmHg 79%
    06:00 +10°C° 0 mm 2 m/s 752 mmHg 78%
    07:00 +10°C° 0 mm 3 m/s 752 mmHg 77%
    08:00 +11°C° 0 mm 3 m/s 753 mmHg 71%
    09:00 +12°C° 0 mm 4 m/s 753 mmHg 64%
    10:00 +14°C° 0 mm 4 m/s 754 mmHg 58%
    11:00 +14°C° 0 mm 4 m/s 754 mmHg 55%
    12:00 +14°C° 0 mm 4 m/s 754 mmHg 53%
    13:00 +14°C° 0 mm 5 m/s 754 mmHg 50%
    14:00 +14°C° 0 mm 4 m/s 754 mmHg 49%
    15:00 +13°C° 0 mm 4 m/s 754 mmHg 49%
    16:00 +13°C° 0 mm 4 m/s 754 mmHg 48%
    17:00 +11°C° 0 mm 3 m/s 755 mmHg 50%
    18:00 +10°C° 0 mm 3 m/s 755 mmHg 53%
    19:00 +8°C° 0 mm 3 m/s 756 mmHg 55%
    20:00 +8°C° 0 mm 3 m/s 756 mmHg 57%
    21:00 +7°C° 0 mm 3 m/s 756 mmHg 58%
    22:00 +7°C° 0 mm 3 m/s 757 mmHg 59%
    23:00 +6°C° 0 mm 2 m/s 757 mmHg 62%
    Mostrar mais

    3.3.7123123